| time (UTC) | temp C | wind direction | speed KPH | gust KPH | rain 1hr cm | rain 24hr cm | rain mn cm | humidity % | barometer mb |
| 20260504040033 | 22 | 0 | 0.0 | 0.0 | 0.00 | 0.00 | 0.00 | 36 | 1007.5 |
| 20260504034542 | 22 | 0 | 0.0 | 0.0 | 0.00 | 0.00 | 0.00 | 37 | 1007.5 |
| 20260504033033 | 23 | 0 | 0.0 | 0.0 | 0.00 | 0.00 | 0.00 | 38 | 1007.4 |
| 20260504031537 | 25 | 0 | 0.0 | 0.0 | 0.00 | 0.00 | 0.00 | 36 | 1007.5 |
| 20260504030039 | 26 | 0 | 0.0 | 0.0 | 0.00 | 0.00 | 0.00 | 37 | 1007.5 |
| 20260504024535 | 27 | 0 | 0.0 | 0.0 | 0.00 | 0.00 | 0.00 | 37 | 1007.5 |
| 20260504023030 | 27 | 0 | 0.0 | 0.0 | 0.00 | 0.00 | 0.00 | 33 | 1007.6 |
| 20260504021530 | 27 | 0 | 0.0 | 3.2 | 0.00 | 0.00 | 0.00 | 33 | 1007.8 |
| 20260504020030 | 28 | 349 | 1.6 | 6.4 | 0.00 | 0.00 | 0.00 | 31 | 1007.8 |
| 20260504014531 | 28 | 349 | 1.6 | 6.4 | 0.00 | 0.00 | 0.00 | 29 | 1008.0 |
| 20260504013032 | 28 | 349 | 3.2 | 9.7 | 0.00 | 0.00 | 0.00 | 27 | 1008.0 |
| 20260504011532 | 28 | 349 | 3.2 | 12.9 | 0.00 | 0.00 | 0.00 | 27 | 1008.2 |
| 20260504010029 | 29 | 344 | 3.2 | 9.7 | 0.00 | 0.00 | 0.00 | 27 | 1008.4 |
| 20260504004530 | 29 | 344 | 3.2 | 8.0 | 0.00 | 0.00 | 0.00 | 26 | 1008.6 |
| 20260504003036 | 29 | 344 | 4.8 | 12.9 | 0.00 | 0.00 | 0.00 | 26 | 1008.8 |
| 20260504001530 | 29 | 344 | 4.8 | 9.7 | 0.00 | 0.00 | 0.00 | 26 | 1009.0 |
| 20260504000030 | 29 | 349 | 4.8 | 12.9 | 0.00 | 0.00 | 0.00 | 25 | 1009.0 |
| 20260503234533 | 29 | 342 | 4.8 | 12.9 | 0.00 | 0.00 | 0.00 | 26 | 1009.3 |
| 20260503233033 | 29 | 342 | 8.0 | 16.1 | 0.00 | 0.00 | 0.00 | 25 | 1009.6 |
| 20260503231544 | 29 | 349 | 4.8 | 12.9 | 0.00 | 0.00 | 0.00 | 26 | 1009.8 |
| 20260503230033 | 29 | 347 | 6.4 | 17.7 | 0.00 | 0.00 | 0.00 | 26 | 1010.0 |
| 20260503224532 | 29 | 319 | 9.7 | 17.7 | 0.00 | 0.00 | 0.00 | 27 | 1010.1 |
| 20260503223030 | 29 | 346 | 6.4 | 14.5 | 0.00 | 0.00 | 0.00 | 28 | 1010.3 |
| 20260503221534 | 29 | 336 | 6.4 | 14.5 | 0.00 | 0.00 | 0.00 | 29 | 1010.4 |
| 20260503220037 | 28 | 334 | 4.8 | 16.1 | 0.00 | 0.00 | 0.00 | 29 | 1010.7 |
| 20260503214540 | 28 | 336 | 3.2 | 14.5 | 0.00 | 0.00 | 0.00 | 28 | 1010.9 |
| 20260503213049 | 28 | 336 | 8.0 | 12.9 | 0.00 | 0.00 | 0.00 | 30 | 1011.0 |
| 20260503211533 | 28 | 334 | 8.0 | 16.1 | 0.00 | 0.00 | 0.00 | 32 | 1011.2 |
| 20260503210030 | 28 | 23 | 4.8 | 17.7 | 0.00 | 0.00 | 0.00 | 30 | 1011.4 |
| 20260503204549 | 28 | 352 | 6.4 | 14.5 | 0.00 | 0.00 | 0.00 | 32 | 1011.6 |
| 20260503203033 | 28 | 348 | 8.0 | 14.5 | 0.00 | 0.00 | 0.00 | 34 | 1011.7 |
| 20260503201530 | 27 | 352 | 6.4 | 14.5 | 0.00 | 0.00 | 0.00 | 36 | 1011.9 |
| 20260503200031 | 27 | 352 | 6.4 | 14.5 | 0.00 | 0.00 | 0.00 | 36 | 1011.9 |
| 20260503194532 | 26 | 324 | 6.4 | 12.9 | 0.00 | 0.00 | 0.00 | 38 | 1012.2 |
| 20260503193032 | 26 | 336 | 6.4 | 12.9 | 0.00 | 0.00 | 0.00 | 39 | 1012.5 |
| 20260503191530 | 26 | 333 | 3.2 | 12.9 | 0.00 | 0.00 | 0.00 | 39 | 1012.6 |
| 20260503190029 | 25 | 352 | 6.4 | 12.9 | 0.00 | 0.00 | 0.00 | 41 | 1012.9 |
| 20260503184534 | 25 | 325 | 3.2 | 9.7 | 0.00 | 0.00 | 0.00 | 44 | 1013.1 |
| 20260503183040 | 24 | 325 | 3.2 | 14.5 | 0.00 | 0.00 | 0.00 | 42 | 1013.2 |
| 20260503181532 | 23 | 311 | 3.2 | 14.5 | 0.00 | 0.00 | 0.00 | 46 | 1013.3 |
| 20260503180034 | 23 | 345 | 6.4 | 19.3 | 0.00 | 0.00 | 0.00 | 45 | 1013.4 |
| 20260503174541 | 23 | 335 | 6.4 | 14.5 | 0.00 | 0.00 | 0.00 | 46 | 1013.4 |
| 20260503173032 | 22 | 349 | 4.8 | 17.7 | 0.00 | 0.00 | 0.00 | 48 | 1013.6 |
| 20260503171535 | 22 | 350 | 6.4 | 14.5 | 0.00 | 0.00 | 0.00 | 49 | 1013.7 |
| 20260503081552 | 16 | 5 | 4.8 | 8.0 | 0.00 | 0.00 | 0.00 | 59 | 1012.7 |
| 20260503071556 | 16 | 5 | 4.8 | 8.0 | 0.00 | 0.00 | 0.00 | 57 | 1012.4 |
| 20260503054540 | 18 | 11 | 6.4 | 14.5 | 0.00 | 0.00 | 0.00 | 55 | 1012.0 |
| 20260503053034 | 18 | 26 | 4.8 | 9.7 | 0.00 | 0.00 | 0.00 | 56 | 1012.2 |
| 20260503051545 | 18 | 27 | 3.2 | 9.7 | 0.00 | 0.00 | 0.00 | 55 | 1012.0 |
| 20260503050034 | 20 | 29 | 4.8 | 9.7 | 0.00 | 0.00 | 0.00 | 51 | 1011.9 |
| 20260503044531 | 20 | 35 | 3.2 | 6.4 | 0.00 | 0.00 | 0.00 | 50 | 1011.9 |
| 20260503043031 | 20 | 35 | 3.2 | 6.4 | 0.00 | 0.00 | 0.00 | 51 | 1011.9 |
| 20260503041536 | 20 | 35 | 3.2 | 6.4 | 0.00 | 0.00 | 0.00 | 51 | 1011.8 |